• In Russia
  • List of Countries
  • For 7 days
  • Water Temperature
  • Satellite Maps
  • Weather Map
  • Weather Widgets
  • user-avatar
    Login

    Hourly Weather Kerns

    Today, 5 December, Monday

    Time Temperature Precipitation Wind Pressure Humidity
    00:00 +22°C° 0 mm 4 mps 759 mmHg 96%
    01:00 +22°C° 0 mm 4 mps 758 mmHg 97%
    02:00 +22°C° 0 mm 4 mps 758 mmHg 97%
    03:00 +23°C° 0 mm 4 mps 759 mmHg 97%
    04:00 +23°C° 0 mm 4 mps 758 mmHg 98%
    05:00 +25°C° 0 mm 4 mps 759 mmHg 94%
    06:00 +26°C° 0 mm 4 mps 759 mmHg 90%
    07:00 +27°C° 0 mm 4 mps 759 mmHg 86%
    08:00 +29°C° 0 mm 5 mps 759 mmHg 73%
    09:00 +32°C° 0 mm 5 mps 759 mmHg 60%
    10:00 +34°C° 0 mm 5 mps 759 mmHg 48%
    11:00 +35°C° 0 mm 5 mps 759 mmHg 43%
    12:00 +36°C° 0 mm 5 mps 759 mmHg 38%
    13:00 +38°C° 0 mm 6 mps 758 mmHg 33%
    14:00 +37°C° 0 mm 5 mps 758 mmHg 34%
    15:00 +36°C° 0 mm 5 mps 758 mmHg 35%
    16:00 +36°C° 0 mm 5 mps 757 mmHg 36%
    17:00 +33°C° 0 mm 5 mps 758 mmHg 48%
    18:00 +30°C° 0 mm 4 mps 758 mmHg 61%
    19:00 +27°C° 0 mm 4 mps 758 mmHg 73%
    20:00 +26°C° 0 mm 4 mps 758 mmHg 80%
    21:00 +25°C° 0 mm 4 mps 759 mmHg 88%
    22:00 +23°C° 0 mm 4 mps 759 mmHg 95%
    23:00 +23°C° 0 mm 4 mps 759 mmHg 96%

    Tomorrow, 6 December, Tuesday

    Time Temperature Precipitation Wind Pressure Humidity
    00:00 +23°C° 0 mm 4 mps 758 mmHg 96%
    01:00 +25°C° 0 mm 4 mps 758 mmHg 97%
    02:00 +25°C° 0 mm 4 mps 758 mmHg 96%
    03:00 +25°C° 0 mm 4 mps 758 mmHg 95%
    04:00 +25°C° 0 mm 4 mps 758 mmHg 93%
    05:00 +26°C° 0 mm 4 mps 758 mmHg 89%
    06:00 +27°C° 0 mm 4 mps 759 mmHg 85%
    07:00 +27°C° 0 mm 4 mps 759 mmHg 81%
    08:00 +29°C° 0 mm 4 mps 759 mmHg 69%
    09:00 +32°C° 0 mm 5 mps 759 mmHg 58%
    10:00 +34°C° 0 mm 5 mps 759 mmHg 46%
    11:00 +35°C° 0 mm 5 mps 759 mmHg 41%
    12:00 +36°C° 0 mm 5 mps 758 mmHg 36%
    13:00 +37°C° 0 mm 5 mps 758 mmHg 32%
    14:00 +37°C° 0 mm 5 mps 757 mmHg 33%
    15:00 +36°C° 0 mm 5 mps 757 mmHg 34%
    16:00 +36°C° 0 mm 4 mps 757 mmHg 35%
    17:00 +33°C° 0 mm 4 mps 757 mmHg 48%
    18:00 +30°C° 0 mm 4 mps 757 mmHg 60%
    19:00 +27°C° 0 mm 4 mps 758 mmHg 73%
    20:00 +26°C° 0 mm 4 mps 758 mmHg 80%
    21:00 +25°C° 0 mm 4 mps 758 mmHg 88%
    22:00 +23°C° 0 mm 4 mps 759 mmHg 95%
    23:00 +23°C° 0 mm 4 mps 758 mmHg 96%

    Day after tomorrow, 7 December, Wednesday

    Time Temperature Precipitation Wind Pressure Humidity
    00:00 +23°C° 0 mm 4 mps 758 mmHg 96%
    01:00 +24°C° 0 mm 3 mps 758 mmHg 97%
    02:00 +24°C° 0 mm 3 mps 757 mmHg 97%
    03:00 +22°C° 0 mm 3 mps 757 mmHg 97%
    04:00 +22°C° 0 mm 3 mps 757 mmHg 97%
    05:00 +24°C° 0 mm 3 mps 757 mmHg 92%
    06:00 +25°C° 0 mm 3 mps 758 mmHg 87%
    07:00 +26°C° 0 mm 3 mps 758 mmHg 82%
    08:00 +28°C° 0 mm 3 mps 758 mmHg 69%
    09:00 +31°C° 0 mm 3 mps 759 mmHg 56%
    10:00 +34°C° 0 mm 4 mps 759 mmHg 42%
    11:00 +35°C° 0 mm 4 mps 758 mmHg 40%
    12:00 +36°C° 0 mm 4 mps 758 mmHg 37%
    13:00 +37°C° 0 mm 4 mps 757 mmHg 35%
    14:00 +36°C° 0 mm 4 mps 757 mmHg 38%
    15:00 +36°C° 0 mm 4 mps 756 mmHg 42%
    16:00 +35°C° 0 mm 4 mps 756 mmHg 45%
    17:00 +33°C° 0 mm 4 mps 756 mmHg 56%
    18:00 +29°C° 0 mm 3 mps 756 mmHg 67%
    19:00 +27°C° 0 mm 3 mps 757 mmHg 79%
    20:00 +26°C° 0 mm 3 mps 757 mmHg 84%
    21:00 +25°C° 0 mm 3 mps 758 mmHg 90%
    22:00 +24°C° 0 mm 3 mps 758 mmHg 96%
    23:00 +23°C° 0.1 mm 2 mps 758 mmHg 97%

    8 December, Thursday

    Time Temperature Precipitation Wind Pressure Humidity
    00:00 +23°C° 0.1 mm 2 mps 757 mmHg 98%
    01:00 +23°C° 0.1 mm 2 mps 757 mmHg 98%
    02:00 +24°C° 0.1 mm 2 mps 757 mmHg 98%
    03:00 +25°C° 0.1 mm 2 mps 756 mmHg 97%
    04:00 +25°C° 0.1 mm 2 mps 756 mmHg 97%
    05:00 +26°C° 0.1 mm 3 mps 757 mmHg 94%
    06:00 +27°C° 0.1 mm 3 mps 757 mmHg 92%
    07:00 +27°C° 0.1 mm 3 mps 758 mmHg 89%
    08:00 +29°C° 0.1 mm 3 mps 758 mmHg 79%
    09:00 +31°C° 0.1 mm 3 mps 758 mmHg 70%
    10:00 +33°C° 0.1 mm 3 mps 758 mmHg 61%
    11:00 +35°C° 0 mm 4 mps 757 mmHg 56%
    12:00 +36°C° 0 mm 4 mps 756 mmHg 51%
    13:00 +37°C° 0 mm 4 mps 756 mmHg 47%
    14:00 +36°C° 0 mm 4 mps 755 mmHg 49%
    15:00 +36°C° 0 mm 4 mps 755 mmHg 52%
    16:00 +35°C° 0 mm 4 mps 754 mmHg 54%
    17:00 +33°C° 0 mm 4 mps 755 mmHg 65%
    18:00 +30°C° 0 mm 3 mps 756 mmHg 75%
    19:00 +28°C° 0 mm 3 mps 756 mmHg 85%
    20:00 +28°C° 0 mm 3 mps 757 mmHg 87%
    21:00 +27°C° 0 mm 3 mps 757 mmHg 89%
    22:00 +27°C° 0 mm 3 mps 758 mmHg 91%
    23:00 +27°C° 0 mm 3 mps 757 mmHg 92%

    9 December, Friday

    Time Temperature Precipitation Wind Pressure Humidity
    00:00 +26°C° 0 mm 3 mps 757 mmHg 92%
    01:00 +26°C° 0 mm 2 mps 757 mmHg 92%
    02:00 +26°C° 0 mm 2 mps 756 mmHg 93%
    03:00 +25°C° 0 mm 2 mps 756 mmHg 93%
    04:00 +25°C° 0 mm 2 mps 756 mmHg 93%
    05:00 +26°C° 0 mm 2 mps 756 mmHg 90%
    06:00 +26°C° 0 mm 2 mps 757 mmHg 87%
    07:00 +27°C° 0 mm 2 mps 758 mmHg 85%
    08:00 +29°C° 0 mm 2 mps 757 mmHg 72%
    09:00 +32°C° 0 mm 2 mps 757 mmHg 59%
    10:00 +35°C° 0 mm 2 mps 757 mmHg 46%
    11:00 +36°C° 0 mm 2 mps 757 mmHg 42%
    12:00 +37°C° 0 mm 3 mps 756 mmHg 38%
    13:00 +38°C° 0 mm 3 mps 756 mmHg 34%
    14:00 +38°C° 0 mm 3 mps 755 mmHg 38%
    15:00 +37°C° 0 mm 4 mps 755 mmHg 41%
    16:00 +36°C° 0 mm 4 mps 754 mmHg 45%
    17:00 +34°C° 0 mm 4 mps 755 mmHg 57%
    18:00 +30°C° 0 mm 3 mps 756 mmHg 68%
    19:00 +28°C° 0 mm 3 mps 756 mmHg 80%
    20:00 +27°C° 0 mm 3 mps 757 mmHg 86%
    21:00 +26°C° 0 mm 2 mps 757 mmHg 91%
    22:00 +25°C° 0 mm 2 mps 758 mmHg 96%
    23:00 +24°C° 0 mm 2 mps 757 mmHg 97%

    10 December, Saturday

    Time Temperature Precipitation Wind Pressure Humidity
    00:00 +24°C° 0 mm 2 mps 757 mmHg 97%
    01:00 +24°C° 0 mm 2 mps 756 mmHg 97%
    02:00 +24°C° 0 mm 2 mps 756 mmHg 97%
    03:00 +24°C° 0 mm 2 mps 756 mmHg 98%
    04:00 +25°C° 0 mm 2 mps 756 mmHg 98%
    05:00 +25°C° 0 mm 2 mps 756 mmHg 95%
    06:00 +26°C° 0 mm 3 mps 757 mmHg 93%
    07:00 +27°C° 0 mm 3 mps 758 mmHg 90%
    08:00 +29°C° 0 mm 3 mps 758 mmHg 79%
    09:00 +31°C° 0 mm 3 mps 758 mmHg 67%
    10:00 +34°C° 0 mm 4 mps 758 mmHg 55%
    11:00 +35°C° 0 mm 4 mps 758 mmHg 51%
    12:00 +36°C° 0 mm 4 mps 757 mmHg 46%
    13:00 +37°C° 0 mm 4 mps 756 mmHg 41%
    14:00 +36°C° 0 mm 4 mps 756 mmHg 44%
    15:00 +36°C° 0 mm 4 mps 756 mmHg 46%
    16:00 +35°C° 0 mm 4 mps 755 mmHg 49%
    17:00 +33°C° 0 mm 4 mps 756 mmHg 59%
    18:00 +30°C° 0 mm 4 mps 756 mmHg 68%
    19:00 +28°C° 0 mm 4 mps 757 mmHg 78%
    20:00 +27°C° 0 mm 4 mps 757 mmHg 83%
    21:00 +27°C° 0 mm 4 mps 757 mmHg 88%
    22:00 +26°C° 0 mm 4 mps 758 mmHg 93%
    23:00 +26°C° 0.1 mm 4 mps 757 mmHg 92%
    Show more